This demonstration page uses our WeatherBlox Daily Observations layout. Learn more.

Left ArrowRight Arrow

Hourly Observations for April 21, 2022

Temp ( °F °C ) Dew Point ( °F °C ) Humidity (%) Winds ( mph kmh ) Pressure ( in mb ) Visibility ( mi km ) Precip ( " mm )
1:01 am 01:01 Mostly Cloudy with Fog 42 5.7 42 5.7 100 100 Calm 30.01 1016 0 0 0.00 0.00
1:56 am 01:56 Mostly Cloudy with Fog 41 4.9 41 4.9 100 100 Calm 30.03 1017 0 0 0.00 0.00
2:57 am 02:57 Mostly Cloudy with Fog 41 4.8 41 4.8 100 100 Calm 30.04 1017 1 2 0.00 0.00
3:56 am 03:56 Mostly Cloudy with Fog 41 5.1 41 5.1 100 100 Calm 30.06 1018 1 2 0.00 0.00
4:56 am 04:56 Mostly Cloudy with Fog 42 5.6 42 5.6 100 100 Calm 30.09 1019 0 0 0.00 0.00
5:56 am 05:56 Mostly Cloudy with Fog 42 5.6 42 5.6 100 100 Calm 30.12 1020 0 0 0.00 0.00
6:56 am 06:56 Mostly Cloudy with Fog 43 5.9 43 5.9 100 100 S 8 13 30.17 1022 1 2 0.00 0.00
7:56 am 07:56 Mostly Cloudy with Fog 43 6 43 6 100 100 SSW 3 6 30.22 1023 1 2 0.00 0.00
9:56 am 09:56 Cloudy with Fog 49 9.2 49 9.2 100 100 Calm 30.25 1025 1 2 0.00 0.00
10:08 am 10:08 Partly Cloudy with Fog 50 10 50 10 100 100 Calm 30.27 1025 0 0 0.00 0.00
10:15 am 10:15 Partly Cloudy with Mist and Fog 50 10 50 10 100 100 Calm 30.27 1025 5 8 0.00 0.00
10:18 am 10:18 Partly Cloudy with Mist and Fog 50 10 50 10 100 100 E 5 7 30.27 1025 1 2 0.00 0.00
10:33 am 10:33 Partly Cloudy with Mist and Fog 50 10 50 10 100 100 N 6 9 30.27 1025 5 8 0.00 0.00
10:56 am 10:56 Mostly Cloudy with Mist and Fog 50 10.2 50 10.2 100 100 ESE 6 9 30.29 1026 3 4 0.00 0.00
11:26 am 11:26 Partly Cloudy with Mist and Fog 52 11 52 11 100 100 NE 3 6 30.29 1026 3 5 0.00 0.00
11:56 am 11:56 Mostly Cloudy with Mist and Fog 53 11.8 53 11.8 100 100 E 3 6 30.29 1026 4 6 0.00 0.00
12:56 pm 12:56 Mostly Cloudy 57 14 53 11.5 85 85 E 7 11 30.26 1025 7 11 0.00 0.00
1:56 pm 13:56 Mostly Sunny 62 16.4 50 9.8 65 65 E 8 13 30.24 1024 9 14 0.00 0.00
2:56 pm 14:56 Partly Cloudy 66 18.9 45 7.3 47 47 SE 8 13 30.23 1024 10 16 0.00 0.00
3:56 pm 15:56 Sunny 69 20.5 40 4.5 35 35 E 9 15 30.19 1022 10 16 0.00 0.00
4:56 pm 16:56 Partly Cloudy 69 20.6 40 4.2 34 34 E 13 20 30.16 1022 10 16 0.00 0.00
5:56 pm 17:56 Mostly Cloudy 68 19.9 39 4 35 35 ESE 12 19 30.15 1021 10 16 0.00 0.00
6:56 pm 18:56 Cloudy 65 18.3 41 5.2 42 42 E 10 17 30.13 1020 10 16 0.00 0.00
7:02 pm 19:02 Mostly Cloudy with Thunderstorms 64 18 41 5 43 43 E 8 13 30.13 1020 10 16 0.00 0.00
7:29 pm 19:29 Mostly Cloudy 63 17 45 7 52 52 E 6 9 30.15 1021 10 16 0.00 0.00
7:44 pm 19:44 Mostly Cloudy with Nearby Thunderstorms 63 17 43 6 49 49 E 10 17 30.14 1021 10 16 0.00 0.00
7:56 pm 19:56 Cloudy 62 16.9 42 5.8 48 48 E 12 19 30.13 1020 10 16 0.00 0.00
8:56 pm 20:56 Cloudy 61 15.9 42 5.5 50 50 ESE 12 19 30.14 1021 10 16 0.00 0.00
9:56 pm 21:56 Cloudy 60 15.6 42 5.8 52 52 E 7 11 30.14 1021 10 16 0.00 0.00
10:56 pm 22:56 Mostly Cloudy 59 15.2 44 6.5 56 56 ESE 10 17 30.12 1020 10 16 0.00 0.00
11:56 pm 23:56 Cloudy 60 15.5 43 6.2 54 54 ESE 8 13 30.09 1019 10 16 0.00 0.00

Powered by AerisWeather